Weather History for Haines, AK

Change the Weather History Date:

Sunday, March 16, 2014

  Actual Average Record
Temperature  
Mean Temperature 34 °F -  
Max Temperature 37 °F 34 °F 52 °F (1989)
Min Temperature 30 °F 24 °F 1 °F (2006)
Degree Days  
Heating Degree Days 32    
Moisture  
Dew Point 25 °F    
Average Humidity 70    
Maximum Humidity 82    
Minimum Humidity 56    
Precipitation  
Precipitation 0.00 in - - ()
Sea Level Pressure  
Sea Level Pressure 29.72 in    
Wind  
Wind Speed 13 mph (ENE)    
Max Wind Speed 17 mph    
Max Gust Speed 29 mph    
Visibility 10 miles    
Events Snow    
Averages and records for this station are not official NWS values.
T = Trace of Precipitation, MM = Missing Value Source: NWS Daily Summary

Daily Weather History Graph

Daily Weather History Graph

Search for Another Location

Airport:

Trip Planner

Search our weather history database for the weather conditions in past years. The results will help you decide how hot, cold, wet, or windy it might be!

Date:

Astronomy

Mar. 16, 2014 Rise Set
Actual Time 7:14 AM AKDT 7:07 PM AKDT
Civil Twilight 6:34 AM AKDT 7:48 PM AKDT
Nautical Twilight 5:46 AM AKDT 8:36 PM AKDT
Astronomical Twilight 4:55 AM AKDT 9:27 PM AKDT
Moon 7:45 PM AKDT (3/16) 6:56 AM AKDT (3/16)
Length of Visible Light 13h 13m
Length of Day
11h 52m
Full, 100% of the Moon is Illuminated
Mar 16
Full
Mar 23
Last Quarter
Mar 30
New
Apr 7
First Quarter
Apr 14
Full

Hourly Weather History & Observations

Time (AKDT) Temp. Windchill Dew Point Humidity Pressure Visibility Wind Dir Wind Speed Gust Speed Precip Events Conditions
12:54 AM 35.1 °F 25.5 °F 25.0 °F 67% 29.52 in 10.0 mi NW 15.0 mph - N/A   Overcast
1:54 AM 34.0 °F 23.4 °F 23.0 °F 64% 29.52 in 10.0 mi WNW 17.3 mph 23.0 mph N/A   Overcast
2:54 AM 33.1 °F 23.4 °F 23.0 °F 66% 29.54 in 10.0 mi WNW 13.8 mph 23.0 mph N/A   Overcast
3:54 AM 32.0 °F 21.6 °F 23.0 °F 69% 29.54 in 10.0 mi NW 15.0 mph - N/A   Overcast
4:54 AM 32.0 °F 22.1 °F 23.0 °F 69% 29.55 in 10.0 mi WNW 13.8 mph - N/A   Overcast
5:54 AM 30.9 °F 19.4 °F 21.9 °F 69% 29.56 in 10.0 mi WNW 17.3 mph - N/A   Mostly Cloudy
6:54 AM 30.0 °F 20.5 °F 21.0 °F 69% 29.58 in 10.0 mi WNW 11.5 mph - N/A   Scattered Clouds
7:54 AM 30.0 °F 19.1 °F 21.0 °F 69% 29.59 in 10.0 mi WNW 15.0 mph - N/A   Partly Cloudy
8:54 AM 30.0 °F 20.0 °F 21.9 °F 72% 29.60 in 10.0 mi West 12.7 mph - N/A   Scattered Clouds
9:54 AM 32.0 °F 24.8 °F 21.0 °F 64% 29.66 in 10.0 mi NW 8.1 mph - N/A   Overcast
10:54 AM 34.0 °F 28.8 °F 19.9 °F 56% 29.68 in 10.0 mi WNW 5.8 mph - N/A   Overcast
11:54 AM 37.0 °F - 24.1 °F 59% 29.71 in 10.0 mi Calm Calm - N/A   Overcast
12:54 PM 37.9 °F 34.4 °F 28.0 °F 68% 29.74 in 10.0 mi Variable 4.6 mph - N/A   Overcast
1:45 PM 37.0 °F 29.3 °F 28.0 °F 70% 29.75 in 10.0 mi SE 11.5 mph - N/A   Overcast
1:54 PM 37.0 °F 28.5 °F 28.9 °F 73% 29.76 in 10.0 mi ESE 13.8 mph 21.9 mph N/A   Overcast
2:54 PM 37.9 °F 30.5 °F 28.0 °F 68% 29.78 in 10.0 mi ESE 11.5 mph 24.2 mph N/A   Overcast
3:54 PM 37.9 °F 30.5 °F 27.0 °F 65% 29.80 in 10.0 mi ESE 11.5 mph 19.6 mph N/A   Overcast
4:54 PM 37.0 °F 28.5 °F 26.1 °F 65% 29.82 in 10.0 mi ESE 13.8 mph 24.2 mph N/A   Overcast
5:54 PM 34.0 °F 24.6 °F 28.0 °F 79% 29.84 in 10.0 mi ESE 13.8 mph 24.2 mph N/A   Overcast
6:54 PM 34.0 °F 24.6 °F 28.0 °F 79% 29.85 in 10.0 mi ESE 13.8 mph 25.3 mph 0.00 in   Overcast
7:54 PM 33.1 °F 24.4 °F 28.0 °F 82% 29.87 in 4.0 mi ESE 11.5 mph 23.0 mph 0.00 in Snow Light Snow
8:54 PM 34.0 °F 25.0 °F 26.1 °F 73% 29.88 in 10.0 mi ESE 12.7 mph 25.3 mph 0.00 in   Scattered Clouds
9:54 PM 33.1 °F 23.0 °F 26.1 °F 75% 29.90 in 10.0 mi East 15.0 mph 28.8 mph N/A   Overcast
10:54 PM 32.0 °F 24.8 °F 26.1 °F 79% 29.92 in 10.0 mi East 8.1 mph 19.6 mph N/A   Overcast
11:54 PM 33.1 °F 25.5 °F 24.1 °F 70% 29.94 in 10.0 mi ESE 9.2 mph 20.7 mph N/A   Mostly Cloudy